Regional Weather Roundup
Issued by NWS

Home | Current Version | Previous Version | Text Only | Print | Product List | Glossary On
Versions: 1 2 3 4 5 6 7 8 9 10 11 12 13 14 15 16 17 18 19 20 21 22 23 24 25 26 27 28 29 30 31 32 33 34 35 36 37 38 39 40 41 42 43 44 45 46 47 48 49 50
000
ASUS43 KDTX 140710
RWRMI
MICHIGAN HOURLY REGIONAL WEATHER ROUNDUP
NATIONAL WEATHER SERVICE DETROIT/PONTIAC MI
200 AM EST SUN FEB 14 2016

NOTE: "FAIR" INDICATES FEW OR NO CLOUDS BELOW 12,000 FEET WITH NO
SIGNIFICANT WEATHER AND/OR OBSTRUCTION TO VISIBILITY.

MIZ047>049-052>055-059>063-066>070-074>076-081>083-140800-
SOUTHEAST LOWER MICHIGAN

CITY           SKY/WX    TMP DP  RH WIND       PRES   REMARKS
ADRIAN         CLEAR      5   2  87 W3        30.47R
ALMA           CLEAR      6   0  75 CALM      30.46S
ANN ARBOR      CLOUDY    -5 -10  79 CALM      30.45F
BAD AXE        CLOUDY   -10 -15  81 CALM      30.45S
CARO           CLOUDY    -4  -8  84 CALM      30.45R
DETROIT CITY   CLEAR      6  -1  73 W5        30.47S WCI  -3
DETROIT        PTCLDY     4   0  83 CALM      30.48S
FLINT          CLOUDY    -4 -10  75 CALM      30.46R
GROSSE ILE     CLEAR      5   1  85 CALM      30.47R
HILLSDALE      CLOUDY     9   1  71 CALM      30.42S
HOWELL         CLOUDY    -3  -6  85 CALM      30.44S

CITY           SKY/WX    TMP DP  RH WIND       PRES   REMARKS
JACKSON        CLOUDY     1  -4  79 W3        30.44S
LAMBERTVILLE   CLEAR      5   1  84 CALM      30.49R
LANSING        CLEAR      4  -1  80 CALM      30.46S
LAPEER         CLOUDY    -2  -5  86 CALM      30.45R
MASON          CLOUDY     1  -3  86 CALM      30.45S
MONROE         PTCLDY     4   1  85 CALM      30.47S
MT. CLEMENS    CLOUDY     1  -3  83 CALM      30.45S
PONTIAC        CLOUDY    -3  -7  82 W3        30.43R
PORT HOPE        N/A      8  -1  66 SW6       30.42S WCI  -2
PORT HURON     CLOUDY    -9 -13  84 CALM      30.46S
TRI CITIES     CLOUDY    10   1  67 W6        30.46S WCI   0
MIDLAND        CLOUDY     8   1  75 CALM      30.46S
TROY           CLEAR      7   2  79 W5        30.48R WCI  -1
SAGINAW HB     CLOUDY     5   3  92 SW5       30.46S WCI  -4
$$
MIZ043>046-050>051-056>058-064>065-071>073-077>080-140800-
SOUTHWEST LOWER MICHIGAN

CITY           SKY/WX    TMP DP  RH WIND       PRES   REMARKS
BATTLE CREEK   CLOUDY     7  -2  66 CALM      30.45F
BENTON HARBOR  CLOUDY    13   4  67 SE5       30.47S WCI   5
BIG RAPIDS     CLOUDY     1  -2  89 CALM      30.42S
COLDWATER      CLOUDY    11   3  68 NE3       30.45S
FREMONT        CLOUDY    10   2  72 CALM      30.45S
HOLLAND        CLOUDY    11   3  70 SE3       30.47F
GRAND RAPIDS   CLEAR      4  -1  80 S3        30.46S
IONIA          FAIR       5  -2  73 SW6       30.45S WCI  -6
KALAMAZOO      CLOUDY    11   2  67 CALM      30.45F
LUDINGTON      CLOUDY    13   5  71 S3        30.45S
MARSHALL       CLEAR      4  -2  75 CALM      30.45S
MOUNT PLEASANT CLOUDY    10   2  72 CALM      30.44R
MUSKEGON       CLOUDY    13   2  61 SE7       30.46F WCI   3
SOUTH HAVEN    FLURRIES  12   7  79 CALM      30.47S
$$
MIZ016>042-140800-
NORTHERN LOWER MICHIGAN

CITY           SKY/WX    TMP DP  RH WIND       PRES   REMARKS
ALPENA         FLURRIES   2  -5  72 N5        30.43R WCI  -8
BEAVER ISLAND  CLOUDY    13   4  66 NW6       30.42R WCI   4
BELLAIRE       LGT SNOW  10   7  89 CALM      30.44R
CADILLAC       CLOUDY     2  -3  79 CALM      30.37S
CHARLEVOIX     LGT SNOW  15   6  68 NW5       30.44S WCI   7
FRANKFORT      CLOUDY    13   4  69 SE5       30.44R WCI   5
GAYLORD        LGT SNOW   3  -2  79 CALM      30.36R
GRAYLING       CLOUDY     3  -2  79 CALM      30.39S
HARBOR SPRINGS MOCLDY    -1  -4  86 NE5       30.41S WCI -11
HOUGHTON LAKE  CLOUDY     7   3  84 SW5       30.40R WCI  -2
MANISTEE       CLOUDY    10   1  67 E3        30.44S
OSCODA         CLEAR    -11 -16  75 CALM      30.44S
PELLSTON       LGT SNOW  -4  -9  79 CALM      30.43R
ROGERS CITY    LGT SNOW   6   1  82 W5        30.43S WCI  -3
TRAVERSE CITY  CLOUDY    11   3  70 SW6       30.43R WCI   1
$$
MIZ007>008-015-140800-
EASTERN UPPER MICHIGAN

CITY           SKY/WX    TMP DP  RH WIND       PRES   REMARKS
KINROSS        CLOUDY    -8  -9  92 E6        30.42F WCI -21
MACKINAC ISLAN LGT SNOW   6   2  85 E5        30.42S WCI  -3
NEWBERRY       LGT SNOW  -3  -5  91 E7        30.38F WCI -17
S. S. MARIE    CLOUDY    -5 -14  65 E5        30.44R WCI -16
MUNISING         N/A      1  -5  75 S9        30.40F WCI -14
$$
MIZ004>006-011>014-085-140800-
CENTRAL UPPER MICHIGAN

CITY           SKY/WX    TMP DP  RH WIND       PRES   REMARKS
MANISTIQUE     CLEAR      0  -6  75 NW6       30.41S WCI -12
ESCANABA       CLOUDY    -8 -17  65 W5        30.43S WCI -19
MENOMINEE      CLOUDY    -6  -9  84 CALM      30.43S
SAWYER-GWINN   CLOUDY   -12 -15  84 CALM      30.35S
$$
MIZ001>003-009>011-084-140800-
WESTERN UPPER MICHIGAN

CITY           SKY/WX    TMP DP  RH WIND       PRES   REMARKS
IRON MOUNTAIN  CLOUDY   -14 -19  79 CALM      30.36F
HOUGHTON       FLURRIES   1  -7  68 SW6       30.32F WCI -10
COPPER HARBOR    N/A      7   2  80 SW6       30.36F WCI  -3
IRONWOOD       CLOUDY   -18 N/A N/A S6        30.28F WCI -33
$$

ABBREVIATIONS USED IN REMARKS
   TC - TEMPERATURE IN CELSIUS
  WCI - WIND CHILL INDEX
   HX - HEAT INDEX
  VSB - VISIBILITY




USA.gov is the U.S. government's official web portal to all federal, state and local government web resources and services.